SCP
0 0 0 0 0 0 0 0 0 0 0 0 0 0 0 0 0 0 0 0 0 0
0 0 0 0 0 0 0 0 0 0 0 0 0 0 0 0 0 0 0 0 0 0
0 0 0 0 0 0 0 0 0 0 0 0 0 0 0 0 0 0 0 0 -0 -0
0 0 0 0 0 0 0 0 0 0 0 0 0 0 0 0 0 0 0 0 0 0
0 0 0 0 0 0 0 0 0 0 0 0 0 0 0 0 0 0 0 0 0 0
0 0 0 0 0 0 0 0 0 0 0 0 0 0 0 0 0 0 0 0 0 0
0 0 0 0 0 0 0 0 0 0 0 0 0 0 0 0 0 0 0 0 0 0
0 0 0 0 0 0 0 0 0 0 0 0 0 0 0 0 0 0 0 0 0 0
0 0 0 0 0 0 0 0 0 0 0 0 0 0 0 0 0 0 0 0 0 0
0 0 0 0 0 0 0 0 0 0 0 0 0 0 0 0 0 0 0 0 0 0
0 0 0 0 0 0 0 0 0 0 0 0 0 0 0 0 0 0 0 0 0 0
0 0 0 0 0 0 0 0 0 0 0 0 0 0 0 0 0 0 0 0 0 0
0 0 0 0 0 0 0 0 0 0 0 0 0 0 0 0 0 0 0 0 0 0
0 0 0 0 0 0 0 0 0 0 0 0 0 0 0 0 0 0 0 0 0 0
Wind_Speed_500mb
17 14 14 14 16 20 23 27 28 29 30 31 33 34 37 40 44 47 50 51 50 53
13 13 14 16 19 22 25 28 31 33 36 40 44 49 53 56 60 62 65 67 69 71
9 12 15 18 21 24 28 31 35 39 42 47 51 57 62 66 69 74 77 81 87 90
11 16 20 24 26 28 33 37 41 45 48 52 56 61 67 71 76 79 82 82 84 87
15 20 24 27 31 35 38 42 47 52 57 62 67 71 75 80 84 87 90 89 87 87
21 25 28 31 35 41 46 49 53 59 64 69 74 79 81 84 86 86 88 88 89 91
26 28 30 36 42 48 52 55 59 65 70 75 80 82 83 84 86 88 88 90 90 90
30 32 35 42 49 52 54 58 63 69 74 79 83 84 84 85 87 89 91 90 88 86
35 37 42 49 54 56 59 63 69 75 81 86 84 82 82 84 84 83 84 85 80 76
40 43 47 54 56 58 62 68 74 81 85 84 81 81 83 82 80 80 78 74 71 72
46 46 51 55 58 60 66 74 81 81 78 80 80 81 81 78 73 73 70 64 62 63
45 47 53 57 57 63 72 80 79 78 78 79 78 75 75 72 69 67 66 61 61 60
46 50 54 56 60 68 75 77 75 75 75 74 77 70 67 63 58 61 67 67 69 69
48 50 52 56 64 71 72 74 74 75 73 71 68 67 61 52 49 61 70 73 73 76
Wind_Direction_500mb
90 72 52 36 18 7 0 358 356 353 349 346 341 337 334 331 330 328 324 321 318 314
69 48 27 10 359 348 343 338 333 331 329 327 326 326 325 324 322 320 318 316 314 311
46 19 1 348 338 332 328 325 324 323 323 323 323 322 321 320 319 317 316 314 313 311
5 349 335 324 319 320 320 319 319 320 320 319 317 317 316 316 314 312 309 308 307 305
323 318 314 315 318 318 317 318 318 318 319 319 318 317 316 314 313 311 309 308 306 303
301 316 319 319 319 319 319 318 317 317 318 317 317 316 315 312 311 309 308 306 304 302
295 308 315 319 319 318 316 315 315 316 316 316 316 315 314 313 312 309 306 304 301 299
286 297 306 312 312 312 311 311 313 315 315 316 317 317 316 314 311 309 306 303 301 299
278 287 297 307 311 312 312 314 315 316 317 316 317 317 315 314 311 307 303 303 302 300
273 283 293 305 309 310 312 314 316 316 317 317 318 317 316 314 309 305 303 301 301 301
269 279 296 305 308 310 313 315 316 316 316 317 319 319 316 313 309 305 303 303 302 300
273 289 300 305 308 312 314 315 316 317 318 318 320 319 316 314 310 306 307 308 314 318
283 293 300 304 309 313 314 314 315 316 318 320 320 320 316 312 310 311 314 321 320 319
286 295 300 304 308 312 314 314 316 316 318 321 321 321 322 319 314 314 316 313 308 310
Wind_Speed_850mb
17 14 14 14 16 20 23 27 28 29 30 31 33 34 37 40 44 47 50 51 50 53
13 13 14 16 19 22 25 28 31 33 36 40 44 49 53 56 60 62 65 67 69 71
9 12 15 18 21 24 28 31 35 39 42 47 51 57 62 66 69 74 77 81 87 90
11 16 20 24 26 28 33 37 41 45 48 52 56 61 67 71 76 79 82 82 84 87
15 20 24 27 31 35 38 42 47 52 57 62 67 71 75 80 84 87 90 89 87 87
21 25 28 31 35 41 46 49 53 59 64 69 74 79 81 84 86 86 88 88 89 91
26 28 30 36 42 48 52 55 59 65 70 75 80 82 83 84 86 88 88 90 90 90
30 32 35 42 49 52 54 58 63 69 74 79 83 84 84 85 87 89 91 90 88 86
35 37 42 49 54 56 59 63 69 75 81 86 84 82 82 84 84 83 84 85 80 76
40 43 47 54 56 58 62 68 74 81 85 84 81 81 83 82 80 80 78 74 71 72
46 46 51 55 58 60 66 74 81 81 78 80 80 81 81 78 73 73 70 64 62 63
45 47 53 57 57 63 72 80 79 78 78 79 78 75 75 72 69 67 66 61 61 60
46 50 54 56 60 68 75 77 75 75 75 74 77 70 67 63 58 61 67 67 69 69
48 50 52 56 64 71 72 74 74 75 73 71 68 67 61 52 49 61 70 73 73 76
Wind_Direction_850mb
90 72 52 36 18 7 0 358 356 353 349 346 341 337 334 331 330 328 324 321 318 314
69 48 27 10 359 348 343 338 333 331 329 327 326 326 325 324 322 320 318 316 314 311
46 19 1 348 338 332 328 325 324 323 323 323 323 322 321 320 319 317 316 314 313 311
5 349 335 324 319 320 320 319 319 320 320 319 317 317 316 316 314 312 309 308 307 305
323 318 314 315 318 318 317 318 318 318 319 319 318 317 316 314 313 311 309 308 306 303
301 316 319 319 319 319 319 318 317 317 318 317 317 316 315 312 311 309 308 306 304 302
295 308 315 319 319 318 316 315 315 316 316 316 316 315 314 313 312 309 306 304 301 299
286 297 306 312 312 312 311 311 313 315 315 316 317 317 316 314 311 309 306 303 301 299
278 287 297 307 311 312 312 314 315 316 317 316 317 317 315 314 311 307 303 303 302 300
273 283 293 305 309 310 312 314 316 316 317 317 318 317 316 314 309 305 303 301 301 301
269 279 296 305 308 310 313 315 316 316 316 317 319 319 316 313 309 305 303 303 302 300
273 289 300 305 308 312 314 315 316 317 318 318 320 319 316 314 310 306 307 308 314 318
283 293 300 304 309 313 314 314 315 316 318 320 320 320 316 312 310 311 314 321 320 319
286 295 300 304 308 312 314 314 316 316 318 321 321 321 322 319 314 314 316 313 308 310